Location: Valley View Observatory
(41.0081°N, 76.5874°W)
Time: 21:55:27
(UTC-04:00)

Daily predictions for brighter satellites

Satellite Brightness Start Highest point End
(mag) Time Altitude Azimuth Time Altitude Azimuth Time Altitude Azimuth
Cosmos 2237 Rocket 3.5 21:07:20 10° NW 21:12:30 38° WSW 21:17:39 10° S
Cosmos 2100 Rocket 4.4 21:06:42 10° N 21:12:49 49° ENE 21:18:56 10° SSE
RESURS DK-1 3.8 21:12:16 10° N 21:15:47 25° NE 21:19:17 10° ESE
Cosmos 1842 Rocket 4.5 21:12:44 10° NNW 21:17:00 51° W 21:21:12 10° S
Cosmos 2173 Rocket 4.3 21:15:05 10° N 21:21:05 51° ENE 21:27:08 10° SSE
Cosmos 1570 Rocket 4.1 21:16:06 10° NNW 21:21:26 78° ENE 21:26:41 10° SSE
Cosmos 2061 Rocket 4.4 21:16:46 10° N 21:22:58 49° ENE 21:29:09 10° SSE
SAR-Lupe-4 3.6 21:19:48 10° SSE 21:23:21 69° ENE 21:26:56 10° N
USA 32 4.2 21:19:16 10° S 21:24:30 84° W 21:29:47 10° N
Cosmos 1340 Rocket 3.5 21:23:07 10° SSW 21:27:05 58° WNW 21:31:08 10° N
Cosmos 2227 Rocket 4.3 21:22:10 10° WSW 21:27:10 32° WNW 21:32:12 10° N
Cosmos 1674 2.7 21:23:30 10° S 21:27:11 58° E 21:30:53 10° NNE
ARGOS 4.0 21:24:16 10° SE 21:29:07 35° ENE 21:33:58 10° N
Cosmos 1939 Rocket 3.3 21:25:32 10° S 21:29:30 64° W 21:33:34 10° NNW
Cosmos 1076 Rocket 3.6 21:26:34 10° S 21:30:52 64° E 21:35:12 10° NNE
Terra 4.0 21:30:50 10° ENE 21:31:56 11° ENE 21:33:03 10° NE
USA 234 3.9 21:27:49 10° ENE 21:33:34 32° SE 21:39:16 10° S
Cosmos 1242 Rocket 2.6 21:32:03 10° N 21:35:46 72° E 21:39:27 10° SSE
SL-16 R/B 2.7 21:32:50 10° NNW 21:38:24 58° WSW 21:43:54 10° S
Cosmos 1408 Rocket 3.8 21:34:45 10° SSE 21:38:52 47° E 21:43:02 10° NNE
Cosmos 1908 3.2 21:36:20 10° N 21:40:14 87° E 21:44:04 10° S
SAR-Lupe-1 4.2 21:39:17 10° S 21:42:52 78° WSW 21:46:30 10° NNW
Cosmos 468 Rocket 4.3 21:38:54 10° N 21:43:56 54° ENE 21:48:17 14° SE
Cosmos 1867 4.0 21:39:03 10° SW 21:44:28 70° NW 21:49:56 10° NNE
Cosmos 2221 3.1 21:41:59 10° NNW 21:46:19 60° W 21:50:38 10° S
ERS-1 Rocket 3.0 21:42:02 10° SSE 21:47:03 79° ENE 21:52:07 10° N
KORONAS-FOTON 3.7 21:43:58 10° S 21:47:44 70° E 21:51:31 10° NNE
Cosmos 1802 Rocket 4.0 21:42:26 10° N 21:48:35 73° E 21:54:43 10° SSE
Tiangong 1 1.3 21:55:15 10° WNW 21:58:01 58° N 22:00:24 13° E
NOAA 11 4.3 22:02:06 11° S 22:07:20 78° WSW 22:12:48 10° NNW
Abrixas 2.7 22:06:00 10° SSW 22:08:30 36° SE 22:09:36 24° E
H-2A R/B 2.4 22:07:56 19° SE 22:11:40 53° ENE 22:16:58 10° N
Cosmos 2016 Rocket 4.0 22:06:08 10° N 22:12:24 88° W 22:17:59 13° S
CZ-4C R/B 4.1 22:14:46 11° E 22:14:46 11° E 22:15:28 10° E
Meteor 2-10 4.3 22:11:20 10° N 22:16:58 69° E 22:21:00 20° SSE
Cosmos 1766 Rocket 4.1 22:12:58 10° SSW 22:17:13 57° W 22:21:32 10° N
MetOp-B 4.3 22:14:15 14° S 22:18:56 71° WSW 22:24:18 10° NNW
Cosmos 1328 Rocket 3.4 22:17:01 10° N 22:21:22 78° E 22:23:58 23° SSE
Cosmos 371 Rocket 3.2 22:19:31 10° NNW 22:24:22 85° ENE 22:27:15 25° SSE
ERBS 2.2 22:21:06 10° NW 22:24:29 79° NE 22:25:48 35° SE
Cosmos 1151 Rocket 3.5 22:20:26 10° N 22:24:39 45° ENE 22:26:36 27° SE
Cosmos 1626 3.1 22:24:02 26° ESE 22:24:47 28° E 22:28:01 10° NNE
Cosmos 1515 Rocket 3.5 22:24:12 10° N 22:28:32 66° E 22:30:41 28° SSE
Cosmos 1726 2.6 22:25:33 10° NNW 22:29:10 56° W 22:31:25 21° SSW
USA 245 3.5 22:28:04 24° S 22:30:03 65° W 22:34:20 10° NNW
H-2A R/B 3.3 22:30:44 22° ESE 22:32:21 28° ENE 22:35:58 10° N
Cosmos 1743 Rocket 3.5 22:29:55 18° S 22:33:07 88° W 22:37:28 10° N
Delta 2 Rocket 4.4 22:27:54 10° WSW 22:33:19 44° S 22:36:56 20° ESE
Cosmos 2263 Rocket 2.2 22:29:13 14° S 22:33:59 60° ESE 22:39:29 10° NNE
Meteor 1-27 4.4 22:29:30 10° N 22:35:16 61° ENE 22:38:24 27° SSE
GPS 2-05 Rocket1 4.4 22:33:33 10° SW 22:34:46 18° SSW 22:34:46 18° SSW
Cosmos 2233 Rocket 4.1 22:30:04 10° N 22:36:13 62° E 22:39:46 26° SSE
Cosmos 1300 3.1 22:35:09 10° NNW 22:38:55 58° W 22:40:57 25° SSW
SPOT 5 3.3 22:35:37 20° S 22:38:59 61° W 22:44:03 10° NNW
Cosmos 1356 3.4 22:38:22 41° SSE 22:39:24 65° E 22:42:52 10° NNE
Lacrosse 5 2.3 22:35:55 10° NW 22:40:48 50° SW 22:43:10 28° S
Cosmos 2228 Rocket 3.3 22:37:27 10° NNW 22:42:01 69° W 22:44:39 25° S
Cosmos 1354 Rocket 4.2 22:40:44 27° SSE 22:43:16 50° ESE 22:48:20 10° NNE
Cosmos 1814 Rocket 4.4 22:39:53 10° NNW 22:45:09 61° WSW 22:48:13 24° S
Nimbus 7 Rocket 4.5 22:41:29 10° NNE 22:47:32 82° WNW 22:53:11 11° SSW
Abrixas rocket 2.0 22:44:22 10° WNW 22:47:36 73° SSW 22:47:58 63° SSE
SL-14 R/B 4.2 22:44:49 14° SSW 22:48:03 46° W 22:51:52 10° N
Cosmos 2058 2.8 22:47:51 35° S 22:49:33 75° E 22:53:47 10° N
Cosmos 841 Rocket 3.4 22:47:34 10° NNW 22:52:51 85° WSW 22:55:14 33° SSE
Cosmos 1763 Rocket 3.6 22:48:27 10° NNW 22:53:31 65° WSW 22:55:57 30° S
Cosmos 1486 Rocket 4.3 22:48:26 10° SSW 22:53:39 67° WNW 22:58:57 10° NNE
RESURS DK-1 3.9 22:50:14 10° NW 22:53:47 28° WSW 22:55:44 19° SSW
Landsat 7 3.8 22:51:51 33° SSE 22:54:00 87° W 22:58:47 10° NNW
EO 1 Delta rocket 4.3 22:51:25 23° SSW 22:54:12 55° W 22:58:47 10° NNW
DMSP B5D2-2 4.0 22:50:30 10° NNE 22:55:45 86° ESE 22:58:55 25° SSW
Cosmos 1447 Rocket 4.5 22:54:08 22° S 22:58:29 88° E 23:04:53 10° N
H-2A ROCKET BODY 3.7 22:56:49 10° SW 23:01:21 32° SSE 23:16:31 10° E
SPOT 1/Viking Rocket 4.3 23:04:07 23° SSW 23:06:58 46° W 23:11:56 10° NNW
Cosmos 1844 Rocket 3.9 23:07:26 23° E 23:07:26 23° E 23:11:44 10° NE
Terra 1.7 23:07:16 41° SSE 23:08:56 88° W 23:13:43 10° NNW
Cosmos 1455 2.1 23:08:11 10° N 23:12:03 70° E 23:12:26 64° SE
Sich 1 3.7 23:14:24 35° E 23:14:28 35° E 23:18:22 10° NNE
USA 234 3.5 23:10:20 10° NE 23:16:52 71° NW 23:23:21 10° WSW
CZ-4 R/B 3.8 23:13:52 10° NNE 23:18:42 67° ESE 23:19:49 49° SSE
Cosmos 1943 3.8 23:14:29 10° NW 23:19:54 48° WSW 23:22:12 31° SSW
Cosmos 2151 4.1 23:19:27 21° SW 23:21:48 39° WNW 23:25:53 10° N
Cosmos 304 Rocket 3.7 23:18:25 10° NNW 23:23:14 81° WSW 23:24:23 52° S
Cosmos 836 Rocket 4.5 23:19:05 10° NNW 23:24:24 80° WSW 23:26:00 46° S
Cosmos 2285 Rocket 4.0 23:20:50 10° NNW 23:27:12 82° WSW 23:29:42 40° S
deb Chang Zheng 4 3.5 23:23:59 10° NNE 23:28:24 86° W 23:29:24 53° SSW
Cosmos 1707 Rocket 3.6 23:26:05 10° N 23:30:33 65° E 23:31:06 59° ESE
Cosmos 2034 Rocket 4.3 23:25:01 10° N 23:31:14 55° E 23:33:16 39° SE
Cosmos 1869 3.4 23:27:51 10° N 23:31:45 58° E 23:31:45 58° E
SME Rocket 3.2 23:32:06 54° E 23:32:33 58° ENE 23:37:08 10° N
ALOS 2 4.5 23:31:46 18° E 23:32:34 19° ENE 23:35:36 10° NNE
Tiangong 1 3.4 23:30:53 10° W 23:31:32 15° W 23:31:32 15° W
PSLV R/B 4.3 23:34:57 40° NNW 23:34:57 40° NNW 23:36:57 10° NNW
Cosmos 1891 Rocket 4.4 23:30:15 10° N 23:36:18 67° E 23:38:07 45° SE
DELTA 2 DEB (DPAF) 4.0 23:37:15 64° SE 23:37:50 74° ENE 23:42:18 10° N
SL-19 R/B 4.4 23:33:02 10° N 23:38:22 67° WNW 23:41:12 30° SSW
CZ-2C R/B 3.6 23:36:13 10° NE 23:40:47 29° E 23:40:52 29° E
Spot 4 3.8 23:42:04 58° S 23:43:01 80° WSW 23:47:54 10° NNW
Cosmos 1400 Rocket 4.0 23:44:03 32° ENE 23:44:03 32° ENE 23:47:10 10° NNE
CZ-4C R/B 3.4 23:43:30 72° SE 23:43:49 78° ENE 23:48:14 10° N
Cosmos 1666 Rocket 3.4 23:45:24 74° SSE 23:45:47 85° E 23:50:16 10° N
CZ-4B R/B 3.6 23:43:44 10° NNE 23:49:01 79° WNW 23:50:35 46° SSW
Meteor 2-10 Rocket 4.4 23:44:28 10° N 23:49:33 39° ENE 23:50:42 35° ESE
Cosmos 540 Rocket 3.8 23:44:54 10° NNW 23:49:55 54° WSW 23:50:56 46° SW
H-2A R/B 4.1 23:48:33 13° SW 23:51:23 20° W 23:55:16 10° NW
Cosmos 968 Rocket 3.4 23:52:54 62° SSE 23:53:40 73° ESE 23:58:55 10° NNE
Cosmos 1862 Rocket 4.5 23:50:41 10° N 23:54:44 35° ENE 23:54:47 35° ENE
Cosmos 1933 Rocket 4.5 23:55:45 36° ENE 23:55:45 36° ENE 23:59:19 10° NNE
